| time (UTC) | temp C | wind direction | speed KPH | gust KPH | rain 1hr cm | rain 24hr cm | rain mn cm | humidity % | barometer mb |
| 20260508220704 | 20 | 338 | 1.6 | 1.6 | 0.00 | 0.00 | 0.00 | 42 | 1009.4 |
| 20260508220201 | 20 | 309 | 0.0 | 1.6 | 0.00 | 0.00 | 0.00 | 44 | 1009.4 |
| 20260508215657 | 20 | 223 | 4.8 | 4.8 | 0.00 | 0.00 | 0.00 | 44 | 1009.5 |
| 20260508215154 | 20 | 205 | 1.6 | 4.8 | 0.00 | 0.00 | 0.00 | 44 | 1009.4 |
| 20260508214651 | 20 | 300 | 0.0 | 0.0 | 0.00 | 0.00 | 0.00 | 45 | 1009.5 |
| 20260508214148 | 20 | 330 | 1.6 | 1.6 | 0.00 | 0.00 | 0.00 | 43 | 1009.5 |
| 20260508213645 | 20 | 23 | 1.6 | 3.2 | 0.00 | 0.00 | 0.00 | 43 | 1009.7 |
| 20260508213141 | 20 | 68 | 3.2 | 3.2 | 0.00 | 0.00 | 0.00 | 42 | 1009.6 |
| 20260508212638 | 20 | 226 | 3.2 | 3.2 | 0.00 | 0.00 | 0.00 | 41 | 1009.5 |
| 20260508212134 | 20 | 276 | 1.6 | 3.2 | 0.00 | 0.00 | 0.00 | 42 | 1009.6 |
| 20260508211634 | 20 | 291 | 3.2 | 3.2 | 0.00 | 0.00 | 0.00 | 41 | 1009.7 |
| 20260508211131 | 20 | 245 | 3.2 | 3.2 | 0.00 | 0.00 | 0.00 | 42 | 1009.8 |
| 20260508210628 | 20 | 262 | 3.2 | 4.8 | 0.00 | 0.00 | 0.00 | 42 | 1010.1 |
| 20260508210126 | 20 | 296 | 0.0 | 1.6 | 0.00 | 0.00 | 0.00 | 44 | 1010.0 |
| 20260508205622 | 20 | 99 | 4.8 | 4.8 | 0.00 | 0.00 | 0.00 | 41 | 1010.0 |
| 20260508205119 | 20 | 335 | 3.2 | 3.2 | 0.00 | 0.00 | 0.00 | 42 | 1010.3 |
| 20260508204615 | 20 | 19 | 3.2 | 3.2 | 0.00 | 0.00 | 0.00 | 42 | 1010.4 |
| 20260508204111 | 20 | 333 | 1.6 | 1.6 | 0.00 | 0.00 | 0.00 | 40 | 1010.3 |
| 20260508203607 | 20 | 148 | 6.4 | 6.4 | 0.00 | 0.00 | 0.00 | 42 | 1010.3 |
| 20260508203104 | 20 | 312 | 1.6 | 3.2 | 0.00 | 0.00 | 0.00 | 42 | 1010.4 |
| 20260508202600 | 21 | 324 | 1.6 | 1.6 | 0.00 | 0.00 | 0.00 | 41 | 1010.5 |
| 20260508202058 | 20 | 69 | 3.2 | 3.2 | 0.00 | 0.00 | 0.00 | 42 | 1010.3 |
| 20260508201554 | 20 | 303 | 1.6 | 1.6 | 0.00 | 0.00 | 0.00 | 41 | 1010.4 |
| 20260508201051 | 20 | 19 | 1.6 | 3.2 | 0.00 | 0.00 | 0.00 | 42 | 1010.6 |
| 20260508200548 | 20 | 326 | 1.6 | 3.2 | 0.00 | 0.00 | 0.00 | 40 | 1010.6 |
| 20260508200043 | 20 | 348 | 1.6 | 3.2 | 0.00 | 0.00 | 0.00 | 41 | 1010.5 |
| 20260508195541 | 20 | 277 | 1.6 | 3.2 | 0.00 | 0.00 | 0.00 | 40 | 1010.5 |
| 20260508195036 | 20 | 291 | 3.2 | 3.2 | 0.00 | 0.00 | 0.00 | 40 | 1010.7 |
| 20260508194534 | 21 | 252 | 3.2 | 3.2 | 0.00 | 0.00 | 0.00 | 39 | 1010.6 |
| 20260508194031 | 20 | 261 | 3.2 | 3.2 | 0.00 | 0.00 | 0.00 | 41 | 1010.7 |
| 20260508193527 | 20 | 173 | 3.2 | 3.2 | 0.00 | 0.00 | 0.00 | 39 | 1010.8 |
| 20260508193024 | 21 | 238 | 6.4 | 6.4 | 0.00 | 0.00 | 0.00 | 40 | 1010.9 |
| 20260508192521 | 21 | 353 | 4.8 | 6.4 | 0.00 | 0.00 | 0.00 | 37 | 1010.7 |
| 20260508192018 | 21 | 158 | 6.4 | 9.7 | 0.00 | 0.00 | 0.00 | 39 | 1011.0 |
| 20260508191515 | 21 | 172 | 3.2 | 6.4 | 0.00 | 0.00 | 0.00 | 41 | 1011.2 |
| 20260508191011 | 21 | 278 | 3.2 | 3.2 | 0.00 | 0.00 | 0.00 | 38 | 1011.3 |
| 20260508190509 | 22 | 215 | 4.8 | 4.8 | 0.00 | 0.00 | 0.00 | 38 | 1011.0 |
| 20260508190004 | 21 | 239 | 1.6 | 1.6 | 0.00 | 0.00 | 0.00 | 40 | 1011.3 |
| 20260508185502 | 20 | 279 | 3.2 | 3.2 | 0.00 | 0.00 | 0.00 | 39 | 1011.5 |
| 20260508184959 | 20 | 202 | 3.2 | 6.4 | 0.00 | 0.00 | 0.00 | 40 | 1011.6 |
| 20260508184457 | 21 | 296 | 3.2 | 3.2 | 0.00 | 0.00 | 0.00 | 38 | 1011.7 |
| 20260508183953 | 22 | 11 | 1.6 | 3.2 | 0.00 | 0.00 | 0.00 | 41 | 1011.8 |
| 20260508183450 | 22 | 291 | 0.0 | 1.6 | 0.00 | 0.00 | 0.00 | 41 | 1011.7 |
| 20260508182945 | 21 | 320 | 1.6 | 3.2 | 0.00 | 0.00 | 0.00 | 42 | 1012.0 |
| 20260508182443 | 21 | 313 | 1.6 | 1.6 | 0.00 | 0.00 | 0.00 | 42 | 1012.0 |
| 20260508181943 | 20 | 308 | 1.6 | 3.2 | 0.00 | 0.00 | 0.00 | 42 | 1012.0 |
| 20260508181440 | 21 | 122 | 3.2 | 4.8 | 0.00 | 0.00 | 0.00 | 43 | 1012.1 |
| 20260508180938 | 21 | 200 | 6.4 | 6.4 | 0.00 | 0.00 | 0.00 | 40 | 1012.1 |
| 20260508180435 | 21 | 118 | 3.2 | 4.8 | 0.00 | 0.00 | 0.00 | 37 | 1012.1 |
| 20260508175930 | 20 | 222 | 3.2 | 4.8 | 0.00 | 0.00 | 0.00 | 41 | 1012.3 |
| 20260508175427 | 20 | 9 | 6.4 | 6.4 | 0.00 | 0.00 | 0.00 | 41 | 1012.5 |
| 20260508174925 | 20 | 186 | 8.0 | 11.3 | 0.00 | 0.00 | 0.00 | 40 | 1012.5 |
| 20260508174423 | 20 | 333 | 0.0 | 0.0 | 0.00 | 0.00 | 0.00 | 42 | 1012.6 |
| 20260508173919 | 20 | 293 | 1.6 | 1.6 | 0.00 | 0.00 | 0.00 | 43 | 1012.7 |
| 20260508173416 | 20 | 243 | 4.8 | 4.8 | 0.00 | 0.00 | 0.00 | 43 | 1012.9 |
| 20260508172912 | 20 | 346 | 3.2 | 3.2 | 0.00 | 0.00 | 0.00 | 45 | 1012.8 |
| 20260508172410 | 20 | 195 | 4.8 | 6.4 | 0.00 | 0.00 | 0.00 | 45 | 1012.8 |
| 20260508171905 | 19 | 296 | 1.6 | 3.2 | 0.00 | 0.00 | 0.00 | 44 | 1013.0 |
| 20260508171402 | 20 | 178 | 6.4 | 6.4 | 0.00 | 0.00 | 0.00 | 44 | 1013.2 |
| 20260508170859 | 20 | 151 | 11.3 | 14.5 | 0.00 | 0.00 | 0.00 | 42 | 1013.0 |
| 20260508170356 | 20 | 94 | 1.6 | 3.2 | 0.00 | 0.00 | 0.00 | 45 | 1013.2 |
| 20260508165853 | 19 | 241 | 4.8 | 4.8 | 0.00 | 0.00 | 0.00 | 44 | 1013.6 |
| 20260508165351 | 20 | 7 | 3.2 | 4.8 | 0.00 | 0.00 | 0.00 | 44 | 1013.6 |
| 20260508164846 | 20 | 63 | 3.2 | 4.8 | 0.00 | 0.00 | 0.00 | 42 | 1013.6 |
| 20260508164344 | 20 | 326 | 1.6 | 3.2 | 0.00 | 0.00 | 0.00 | 42 | 1013.7 |
| 20260508163841 | 20 | 162 | 4.8 | 4.8 | 0.00 | 0.00 | 0.00 | 45 | 1013.7 |
| 20260508163339 | 20 | 176 | 3.2 | 3.2 | 0.00 | 0.00 | 0.00 | 44 | 1013.8 |
| 20260508162834 | 20 | 165 | 4.8 | 4.8 | 0.00 | 0.00 | 0.00 | 44 | 1013.9 |
| 20260508162331 | 19 | 142 | 4.8 | 4.8 | 0.00 | 0.00 | 0.00 | 48 | 1013.8 |
| 20260508161829 | 19 | 212 | 3.2 | 4.8 | 0.00 | 0.00 | 0.00 | 46 | 1014.0 |
| 20260508161326 | 20 | 324 | 0.0 | 1.6 | 0.00 | 0.00 | 0.00 | 47 | 1014.2 |
| 20260508160823 | 19 | 305 | 1.6 | 3.2 | 0.00 | 0.00 | 0.00 | 47 | 1014.2 |
| 20260508160322 | 19 | 320 | 6.4 | 9.7 | 0.00 | 0.00 | 0.00 | 45 | 1014.0 |
| 20260508155817 | 19 | 194 | 4.8 | 6.4 | 0.00 | 0.00 | 0.00 | 45 | 1014.2 |
| 20260508155315 | 18 | 255 | 3.2 | 3.2 | 0.00 | 0.00 | 0.00 | 46 | 1014.2 |
| 20260508154812 | 19 | 333 | 4.8 | 9.7 | 0.00 | 0.00 | 0.00 | 46 | 1014.3 |
| 20260508154309 | 18 | 300 | 6.4 | 9.7 | 0.00 | 0.00 | 0.00 | 46 | 1014.3 |
| 20260508153805 | 18 | 277 | 3.2 | 4.8 | 0.00 | 0.00 | 0.00 | 46 | 1014.5 |
| 20260508153303 | 19 | 283 | 3.2 | 3.2 | 0.00 | 0.00 | 0.00 | 47 | 1014.6 |
| 20260508152759 | 18 | 210 | 4.8 | 4.8 | 0.00 | 0.00 | 0.00 | 45 | 1014.5 |
| 20260508152255 | 18 | 211 | 4.8 | 4.8 | 0.00 | 0.00 | 0.00 | 44 | 1014.5 |
| 20260508151751 | 18 | 255 | 3.2 | 3.2 | 0.00 | 0.00 | 0.00 | 44 | 1014.6 |
| 20260508151249 | 18 | 316 | 1.6 | 3.2 | 0.00 | 0.00 | 0.00 | 46 | 1014.5 |
| 20260508150745 | 17 | 300 | 4.8 | 4.8 | 0.00 | 0.00 | 0.00 | 46 | 1014.7 |
| 20260508150242 | 17 | 307 | 3.2 | 4.8 | 0.00 | 0.00 | 0.00 | 45 | 1014.7 |
| 20260508145738 | 17 | 1 | 1.6 | 1.6 | 0.00 | 0.00 | 0.00 | 48 | 1014.8 |
| 20260508145234 | 17 | 286 | 1.6 | 1.6 | 0.00 | 0.00 | 0.00 | 47 | 1014.7 |
| 20260508144731 | 17 | 307 | 3.2 | 4.8 | 0.00 | 0.00 | 0.00 | 46 | 1014.7 |
| 20260508144230 | 17 | 205 | 3.2 | 4.8 | 0.00 | 0.00 | 0.00 | 46 | 1014.8 |
| 20260508143727 | 16 | 344 | 1.6 | 1.6 | 0.00 | 0.00 | 0.00 | 47 | 1015.1 |
| 20260508143224 | 17 | 318 | 1.6 | 3.2 | 0.00 | 0.00 | 0.00 | 48 | 1015.1 |
| 20260508142720 | 16 | 314 | 3.2 | 3.2 | 0.00 | 0.00 | 0.00 | 50 | 1014.9 |
| 20260508142217 | 16 | 343 | 1.6 | 1.6 | 0.00 | 0.00 | 0.00 | 50 | 1014.9 |
| 20260508141713 | 16 | 274 | 3.2 | 3.2 | 0.00 | 0.00 | 0.00 | 50 | 1015.3 |
| 20260508141211 | 16 | 76 | 3.2 | 3.2 | 0.00 | 0.00 | 0.00 | 51 | 1015.2 |
| 20260508140708 | 16 | 337 | 3.2 | 3.2 | 0.00 | 0.00 | 0.00 | 51 | 1015.2 |
| 20260508140204 | 16 | 27 | 3.2 | 3.2 | 0.00 | 0.00 | 0.00 | 51 | 1015.3 |
| 20260508135701 | 15 | 348 | 0.0 | 0.0 | 0.00 | 0.00 | 0.00 | 52 | 1015.2 |
| 20260508135201 | 15 | 347 | 0.0 | 1.6 | 0.00 | 0.00 | 0.00 | 51 | 1015.4 |
| 20260508134658 | 15 | 303 | 1.6 | 1.6 | 0.00 | 0.00 | 0.00 | 54 | 1015.3 |
| 20260508134155 | 14 | 290 | 3.2 | 4.8 | 0.00 | 0.00 | 0.00 | 53 | 1015.4 |
| 20260508133652 | 15 | 220 | 3.2 | 3.2 | 0.00 | 0.00 | 0.00 | 54 | 1015.3 |
| 20260508133149 | 14 | 323 | 1.6 | 1.6 | 0.00 | 0.00 | 0.00 | 54 | 1015.4 |
| 20260508132647 | 13 | 348 | 0.0 | 1.6 | 0.00 | 0.00 | 0.00 | 58 | 1015.3 |
| 20260508132144 | 12 | 311 | 1.6 | 1.6 | 0.00 | 0.00 | 0.00 | 56 | 1015.4 |
| 20260508131639 | 12 | 357 | 1.6 | 1.6 | 0.00 | 0.00 | 0.00 | 58 | 1015.2 |
| 20260508131136 | 12 | 9 | 1.6 | 1.6 | 0.00 | 0.00 | 0.00 | 57 | 1015.4 |
| 20260508130633 | 12 | 355 | 1.6 | 3.2 | 0.00 | 0.00 | 0.00 | 58 | 1015.1 |
| 20260508130130 | 12 | 162 | 4.8 | 6.4 | 0.00 | 0.00 | 0.00 | 60 | 1015.3 |
| 20260508125631 | 11 | 276 | 1.6 | 1.6 | 0.00 | 0.00 | 0.00 | 60 | 1014.9 |
| 20260508125128 | 11 | 349 | 0.0 | 0.0 | 0.00 | 0.00 | 0.00 | 63 | 1015.1 |
| 20260508124626 | 11 | 60 | 3.2 | 4.8 | 0.00 | 0.00 | 0.00 | 60 | 1015.1 |
| 20260508124123 | 11 | 355 | 0.0 | 0.0 | 0.00 | 0.00 | 0.00 | 64 | 1015.3 |
| 20260508123621 | 10 | 42 | 0.0 | 0.0 | 0.00 | 0.00 | 0.00 | 65 | 1015.1 |
| 20260508123119 | 9 | 2 | 0.0 | 0.0 | 0.00 | 0.00 | 0.00 | 67 | 1015.1 |
| 20260508122614 | 8 | 351 | 0.0 | 0.0 | 0.00 | 0.00 | 0.00 | 68 | 1015.1 |
| 20260508122112 | 8 | 340 | 0.0 | 0.0 | 0.00 | 0.00 | 0.00 | 70 | 1015.1 |
| 20260508121610 | 8 | 355 | 0.0 | 0.0 | 0.00 | 0.00 | 0.00 | 70 | 1015.1 |
| 20260508121108 | 8 | 345 | 0.0 | 0.0 | 0.00 | 0.00 | 0.00 | 70 | 1015.1 |
| 20260508120605 | 8 | 345 | 0.0 | 0.0 | 0.00 | 0.00 | 0.00 | 70 | 1015.1 |
| 20260508120103 | 8 | 353 | 0.0 | 0.0 | 0.00 | 0.00 | 0.00 | 71 | 1015.1 |
| 20260508115600 | 7 | 355 | 0.0 | 0.0 | 0.00 | 0.00 | 0.00 | 72 | 1015.2 |
| 20260508115057 | 7 | 351 | 0.0 | 0.0 | 0.00 | 0.00 | 0.00 | 75 | 1015.2 |
| 20260508114554 | 7 | 350 | 0.0 | 0.0 | 0.00 | 0.00 | 0.00 | 76 | 1014.8 |
| 20260508114050 | 7 | 357 | 0.0 | 0.0 | 0.00 | 0.00 | 0.00 | 75 | 1014.8 |
| 20260508113548 | 7 | 352 | 0.0 | 0.0 | 0.00 | 0.00 | 0.00 | 75 | 1014.7 |
| 20260508113046 | 7 | 351 | 0.0 | 0.0 | 0.00 | 0.00 | 0.00 | 75 | 1014.7 |
| 20260508112541 | 7 | 351 | 0.0 | 0.0 | 0.00 | 0.00 | 0.00 | 75 | 1014.6 |
| 20260508112039 | 7 | 351 | 0.0 | 0.0 | 0.00 | 0.00 | 0.00 | 76 | 1014.6 |
| 20260508111536 | 6 | 347 | 0.0 | 0.0 | 0.00 | 0.00 | 0.00 | 76 | 1014.5 |
| 20260508111032 | 6 | 347 | 0.0 | 0.0 | 0.00 | 0.00 | 0.00 | 77 | 1014.7 |
| 20260508110530 | 6 | 349 | 0.0 | 0.0 | 0.00 | 0.00 | 0.00 | 75 | 1014.5 |
| 20260508110026 | 6 | 347 | 0.0 | 0.0 | 0.00 | 0.00 | 0.00 | 77 | 1014.5 |
| 20260508105521 | 6 | 351 | 0.0 | 0.0 | 0.00 | 0.00 | 0.00 | 77 | 1014.5 |
| 20260508105019 | 6 | 350 | 0.0 | 0.0 | 0.00 | 0.00 | 0.00 | 77 | 1014.5 |
| 20260508104517 | 6 | 351 | 0.0 | 0.0 | 0.00 | 0.00 | 0.00 | 76 | 1014.5 |
| 20260508104013 | 6 | 351 | 0.0 | 0.0 | 0.00 | 0.00 | 0.00 | 76 | 1014.4 |
| 20260508103509 | 6 | 345 | 0.0 | 0.0 | 0.00 | 0.00 | 0.00 | 76 | 1014.4 |
| 20260508103007 | 6 | 350 | 0.0 | 0.0 | 0.00 | 0.00 | 0.00 | 77 | 1014.2 |
| 20260508102505 | 6 | 352 | 0.0 | 0.0 | 0.00 | 0.00 | 0.00 | 77 | 1014.4 |
| 20260508102002 | 6 | 347 | 0.0 | 0.0 | 0.00 | 0.00 | 0.00 | 78 | 1014.4 |
| 20260508101459 | 6 | 351 | 0.0 | 0.0 | 0.00 | 0.00 | 0.00 | 79 | 1014.5 |
| 20260508100956 | 6 | 350 | 0.0 | 0.0 | 0.00 | 0.00 | 0.00 | 80 | 1014.4 |
| 20260508100455 | 6 | 350 | 0.0 | 0.0 | 0.00 | 0.00 | 0.00 | 79 | 1014.4 |
| 20260508095951 | 6 | 351 | 0.0 | 0.0 | 0.00 | 0.00 | 0.00 | 79 | 1014.4 |
| 20260508095448 | 5 | 345 | 0.0 | 0.0 | 0.00 | 0.00 | 0.00 | 80 | 1014.3 |
| 20260508094945 | 5 | 344 | 0.0 | 0.0 | 0.00 | 0.00 | 0.00 | 80 | 1014.2 |
| 20260508094442 | 5 | 350 | 0.0 | 0.0 | 0.00 | 0.00 | 0.00 | 80 | 1014.3 |
| 20260508093939 | 5 | 350 | 0.0 | 0.0 | 0.00 | 0.00 | 0.00 | 81 | 1014.2 |
| 20260508093436 | 5 | 350 | 0.0 | 0.0 | 0.00 | 0.00 | 0.00 | 81 | 1014.3 |
| 20260508092934 | 5 | 350 | 0.0 | 0.0 | 0.00 | 0.00 | 0.00 | 82 | 1014.3 |
| 20260508092431 | 5 | 345 | 0.0 | 0.0 | 0.00 | 0.00 | 0.00 | 83 | 1014.3 |
| 20260508091930 | 5 | 345 | 0.0 | 0.0 | 0.00 | 0.00 | 0.00 | 83 | 1014.4 |
| 20260508091426 | 4 | 344 | 0.0 | 0.0 | 0.00 | 0.00 | 0.00 | 83 | 1014.5 |
| 20260508090923 | 4 | 344 | 0.0 | 0.0 | 0.00 | 0.00 | 0.00 | 83 | 1014.3 |
| 20260508090422 | 4 | 344 | 0.0 | 0.0 | 0.00 | 0.00 | 0.00 | 83 | 1014.6 |
| 20260508085917 | 4 | 350 | 0.0 | 0.0 | 0.00 | 0.00 | 0.00 | 83 | 1014.3 |
| 20260508085414 | 5 | 351 | 0.0 | 0.0 | 0.00 | 0.00 | 0.00 | 83 | 1014.4 |
| 20260508084911 | 4 | 351 | 0.0 | 0.0 | 0.00 | 0.00 | 0.00 | 83 | 1014.2 |
| 20260508084408 | 4 | 347 | 0.0 | 0.0 | 0.00 | 0.00 | 0.00 | 83 | 1014.1 |
| 20260508083906 | 4 | 347 | 0.0 | 0.0 | 0.00 | 0.00 | 0.00 | 82 | 1014.4 |
| 20260508083403 | 5 | 348 | 0.0 | 0.0 | 0.00 | 0.00 | 0.00 | 82 | 1014.2 |
| 20260508082902 | 5 | 348 | 0.0 | 0.0 | 0.00 | 0.00 | 0.00 | 82 | 1014.1 |
| 20260508082400 | 5 | 347 | 0.0 | 0.0 | 0.00 | 0.00 | 0.00 | 81 | 1014.2 |
| 20260508081857 | 5 | 347 | 0.0 | 0.0 | 0.00 | 0.00 | 0.00 | 80 | 1014.2 |
| 20260508081354 | 5 | 347 | 0.0 | 0.0 | 0.00 | 0.00 | 0.00 | 80 | 1014.3 |
| 20260508080851 | 5 | 347 | 0.0 | 0.0 | 0.00 | 0.00 | 0.00 | 81 | 1014.1 |
| 20260508080349 | 5 | 347 | 0.0 | 0.0 | 0.00 | 0.00 | 0.00 | 81 | 1014.3 |
| 20260508075845 | 5 | 347 | 0.0 | 0.0 | 0.00 | 0.00 | 0.00 | 80 | 1014.2 |
| 20260508075342 | 5 | 347 | 0.0 | 0.0 | 0.00 | 0.00 | 0.00 | 79 | 1014.2 |
| 20260508074840 | 5 | 347 | 0.0 | 0.0 | 0.00 | 0.00 | 0.00 | 79 | 1014.2 |
| 20260508074337 | 5 | 347 | 0.0 | 0.0 | 0.00 | 0.00 | 0.00 | 78 | 1014.2 |
| 20260508073834 | 5 | 347 | 0.0 | 0.0 | 0.00 | 0.00 | 0.00 | 78 | 1014.3 |
| 20260508073332 | 5 | 347 | 0.0 | 0.0 | 0.00 | 0.00 | 0.00 | 77 | 1014.1 |
| 20260508072828 | 5 | 347 | 0.0 | 0.0 | 0.00 | 0.00 | 0.00 | 77 | 1014.1 |
| 20260508072325 | 5 | 347 | 0.0 | 0.0 | 0.00 | 0.00 | 0.00 | 76 | 1014.3 |
| 20260508071822 | 6 | 347 | 0.0 | 0.0 | 0.00 | 0.00 | 0.00 | 75 | 1014.3 |
| 20260508071320 | 6 | 347 | 0.0 | 0.0 | 0.00 | 0.00 | 0.00 | 74 | 1014.2 |
| 20260508070817 | 6 | 347 | 0.0 | 0.0 | 0.00 | 0.00 | 0.00 | 73 | 1014.2 |
| 20260508070316 | 6 | 351 | 0.0 | 0.0 | 0.00 | 0.00 | 0.00 | 72 | 1014.3 |
| 20260508065813 | 6 | 347 | 0.0 | 0.0 | 0.00 | 0.00 | 0.00 | 72 | 1014.3 |
| 20260508065311 | 5 | 347 | 0.0 | 0.0 | 0.00 | 0.00 | 0.00 | 73 | 1014.4 |
| 20260508064809 | 5 | 347 | 0.0 | 0.0 | 0.00 | 0.00 | 0.00 | 73 | 1014.7 |
| 20260508064306 | 5 | 347 | 0.0 | 0.0 | 0.00 | 0.00 | 0.00 | 74 | 1014.6 |
| 20260508063803 | 5 | 347 | 0.0 | 0.0 | 0.00 | 0.00 | 0.00 | 75 | 1014.7 |
| 20260508063301 | 5 | 347 | 0.0 | 0.0 | 0.00 | 0.00 | 0.00 | 75 | 1014.7 |
| 20260508062758 | 5 | 347 | 0.0 | 0.0 | 0.00 | 0.00 | 0.00 | 74 | 1014.7 |
| 20260508062256 | 5 | 347 | 0.0 | 0.0 | 0.00 | 0.00 | 0.00 | 73 | 1014.8 |
| 20260508061752 | 5 | 347 | 0.0 | 0.0 | 0.00 | 0.00 | 0.00 | 73 | 1014.8 |
| 20260508061249 | 5 | 347 | 0.0 | 0.0 | 0.00 | 0.00 | 0.00 | 74 | 1014.9 |
| 20260508060746 | 5 | 347 | 0.0 | 0.0 | 0.00 | 0.00 | 0.00 | 74 | 1015.1 |
| 20260508060244 | 5 | 347 | 0.0 | 0.0 | 0.00 | 0.00 | 0.00 | 74 | 1014.9 |
| 20260508055739 | 6 | 347 | 0.0 | 0.0 | 0.00 | 0.00 | 0.00 | 72 | 1014.7 |
| 20260508055237 | 6 | 347 | 0.0 | 0.0 | 0.00 | 0.00 | 0.00 | 71 | 1014.9 |
| 20260508054733 | 6 | 347 | 0.0 | 0.0 | 0.00 | 0.00 | 0.00 | 71 | 1015.2 |
| 20260508054231 | 6 | 347 | 0.0 | 0.0 | 0.00 | 0.00 | 0.00 | 71 | 1015.1 |
| 20260508053728 | 6 | 347 | 0.0 | 0.0 | 0.00 | 0.00 | 0.00 | 72 | 1015.2 |
| 20260508053225 | 6 | 340 | 0.0 | 0.0 | 0.00 | 0.00 | 0.00 | 72 | 1014.9 |
| 20260508052722 | 6 | 346 | 0.0 | 0.0 | 0.00 | 0.00 | 0.00 | 72 | 1014.9 |
| 20260508052219 | 6 | 350 | 0.0 | 0.0 | 0.00 | 0.00 | 0.00 | 71 | 1014.8 |
| 20260508051715 | 6 | 344 | 0.0 | 0.0 | 0.00 | 0.00 | 0.00 | 71 | 1014.8 |
| 20260508051211 | 6 | 344 | 0.0 | 0.0 | 0.00 | 0.00 | 0.00 | 72 | 1014.9 |
| 20260508050708 | 6 | 347 | 0.0 | 0.0 | 0.00 | 0.00 | 0.00 | 71 | 1014.8 |
| 20260508050206 | 6 | 347 | 0.0 | 0.0 | 0.00 | 0.00 | 0.00 | 71 | 1014.8 |
| 20260508045705 | 6 | 344 | 0.0 | 0.0 | 0.00 | 0.00 | 0.00 | 71 | 1014.8 |
| 20260508045204 | 6 | 343 | 0.0 | 0.0 | 0.00 | 0.00 | 0.00 | 73 | 1014.8 |
| 20260508044701 | 6 | 345 | 0.0 | 0.0 | 0.00 | 0.00 | 0.00 | 72 | 1014.7 |
| 20260508044157 | 6 | 347 | 0.0 | 0.0 | 0.00 | 0.00 | 0.00 | 72 | 1014.8 |
| 20260508043653 | 6 | 347 | 0.0 | 0.0 | 0.00 | 0.00 | 0.00 | 73 | 1014.8 |
| 20260508043152 | 6 | 347 | 0.0 | 0.0 | 0.00 | 0.00 | 0.00 | 73 | 1014.8 |
| 20260508042648 | 6 | 347 | 0.0 | 0.0 | 0.00 | 0.00 | 0.00 | 73 | 1014.7 |
| 20260508042145 | 6 | 348 | 0.0 | 0.0 | 0.00 | 0.00 | 0.00 | 73 | 1014.7 |
| 20260508041641 | 6 | 349 | 0.0 | 0.0 | 0.00 | 0.00 | 0.00 | 73 | 1014.7 |
| 20260508041138 | 6 | 351 | 0.0 | 0.0 | 0.00 | 0.00 | 0.00 | 73 | 1014.6 |
| 20260508040635 | 6 | 343 | 0.0 | 0.0 | 0.00 | 0.00 | 0.00 | 74 | 1014.8 |
| 20260508040132 | 6 | 352 | 0.0 | 0.0 | 0.00 | 0.00 | 0.00 | 75 | 1014.5 |
| 20260508035629 | 6 | 347 | 0.0 | 0.0 | 0.00 | 0.00 | 0.00 | 74 | 1014.7 |
| 20260508035127 | 6 | 349 | 0.0 | 0.0 | 0.00 | 0.00 | 0.00 | 74 | 1014.9 |
| 20260508034624 | 6 | 350 | 0.0 | 0.0 | 0.00 | 0.00 | 0.00 | 75 | 1014.7 |
| 20260508034121 | 6 | 347 | 0.0 | 0.0 | 0.00 | 0.00 | 0.00 | 76 | 1014.8 |
| 20260508033618 | 6 | 347 | 0.0 | 0.0 | 0.00 | 0.00 | 0.00 | 76 | 1014.9 |
| 20260508033116 | 6 | 347 | 0.0 | 0.0 | 0.00 | 0.00 | 0.00 | 73 | 1014.7 |
| 20260508032612 | 6 | 347 | 0.0 | 0.0 | 0.00 | 0.00 | 0.00 | 73 | 1014.9 |
| 20260508032110 | 6 | 347 | 0.0 | 0.0 | 0.00 | 0.00 | 0.00 | 70 | 1014.7 |
| 20260508031607 | 6 | 347 | 0.0 | 0.0 | 0.00 | 0.00 | 0.00 | 70 | 1014.9 |
| 20260508031103 | 6 | 347 | 0.0 | 0.0 | 0.00 | 0.00 | 0.00 | 68 | 1014.8 |
| 20260508030559 | 6 | 347 | 0.0 | 0.0 | 0.00 | 0.00 | 0.00 | 69 | 1014.8 |
| 20260508030058 | 6 | 347 | 0.0 | 0.0 | 0.00 | 0.00 | 0.00 | 69 | 1014.8 |
| 20260508025553 | 6 | 347 | 0.0 | 0.0 | 0.00 | 0.00 | 0.00 | 70 | 1014.9 |
| 20260508025050 | 6 | 347 | 0.0 | 0.0 | 0.00 | 0.00 | 0.00 | 69 | 1014.7 |
| 20260508024546 | 7 | 347 | 0.0 | 0.0 | 0.00 | 0.00 | 0.00 | 69 | 1014.7 |
| 20260508024044 | 7 | 347 | 0.0 | 0.0 | 0.00 | 0.00 | 0.00 | 68 | 1014.7 |
| 20260508023540 | 7 | 344 | 0.0 | 0.0 | 0.00 | 0.00 | 0.00 | 66 | 1014.6 |
| 20260508023038 | 6 | 344 | 0.0 | 0.0 | 0.00 | 0.00 | 0.00 | 67 | 1014.6 |
| 20260508022533 | 7 | 344 | 0.0 | 0.0 | 0.00 | 0.00 | 0.00 | 68 | 1014.6 |
| 20260508022031 | 7 | 344 | 0.0 | 0.0 | 0.00 | 0.00 | 0.00 | 67 | 1014.6 |
| 20260508021526 | 7 | 344 | 0.0 | 0.0 | 0.00 | 0.00 | 0.00 | 66 | 1014.7 |
| 20260508021022 | 7 | 344 | 0.0 | 0.0 | 0.00 | 0.00 | 0.00 | 64 | 1014.8 |
| 20260508020520 | 7 | 344 | 0.0 | 0.0 | 0.00 | 0.00 | 0.00 | 65 | 1014.5 |
| 20260508020018 | 7 | 344 | 0.0 | 0.0 | 0.00 | 0.00 | 0.00 | 61 | 1014.6 |
| 20260508015515 | 7 | 344 | 0.0 | 0.0 | 0.00 | 0.00 | 0.00 | 63 | 1014.7 |
| 20260508015012 | 7 | 344 | 0.0 | 0.0 | 0.00 | 0.00 | 0.00 | 61 | 1014.6 |
| 20260508014508 | 7 | 344 | 0.0 | 0.0 | 0.00 | 0.00 | 0.00 | 60 | 1014.7 |
| 20260508014004 | 7 | 344 | 0.0 | 0.0 | 0.00 | 0.00 | 0.00 | 62 | 1014.7 |
| 20260508013501 | 7 | 344 | 0.0 | 0.0 | 0.00 | 0.00 | 0.00 | 63 | 1014.6 |
| 20260508012958 | 7 | 344 | 0.0 | 0.0 | 0.00 | 0.00 | 0.00 | 61 | 1014.6 |
| 20260508012455 | 7 | 344 | 0.0 | 0.0 | 0.00 | 0.00 | 0.00 | 60 | 1014.4 |
| 20260508011952 | 8 | 344 | 0.0 | 0.0 | 0.00 | 0.00 | 0.00 | 61 | 1014.4 |
| 20260508011450 | 8 | 344 | 0.0 | 0.0 | 0.00 | 0.00 | 0.00 | 60 | 1014.4 |
| 20260508010947 | 8 | 344 | 0.0 | 0.0 | 0.00 | 0.00 | 0.00 | 58 | 1014.6 |
| 20260508010444 | 8 | 344 | 0.0 | 0.0 | 0.00 | 0.00 | 0.00 | 58 | 1014.5 |
| 20260508005941 | 8 | 346 | 0.0 | 0.0 | 0.00 | 0.00 | 0.00 | 59 | 1014.3 |
| 20260508005438 | 9 | 346 | 0.0 | 0.0 | 0.00 | 0.00 | 0.00 | 56 | 1014.4 |
| 20260508004934 | 9 | 346 | 0.0 | 0.0 | 0.00 | 0.00 | 0.00 | 56 | 1014.2 |
| 20260508004431 | 10 | 346 | 0.0 | 0.0 | 0.00 | 0.00 | 0.00 | 55 | 1014.3 |
| 20260508003927 | 10 | 346 | 0.0 | 0.0 | 0.00 | 0.00 | 0.00 | 54 | 1014.3 |
| 20260508003424 | 10 | 346 | 0.0 | 0.0 | 0.00 | 0.00 | 0.00 | 52 | 1014.2 |
| 20260508002921 | 11 | 347 | 0.0 | 0.0 | 0.00 | 0.00 | 0.00 | 51 | 1014.3 |
| 20260508002418 | 11 | 334 | 0.0 | 0.0 | 0.00 | 0.00 | 0.00 | 48 | 1014.1 |
| 20260508001914 | 12 | 330 | 0.0 | 0.0 | 0.00 | 0.00 | 0.00 | 47 | 1014.2 |
| 20260508001410 | 12 | 335 | 0.0 | 0.0 | 0.00 | 0.00 | 0.00 | 43 | 1014.0 |
| 20260508000907 | 12 | 325 | 0.0 | 0.0 | 0.00 | 0.00 | 0.00 | 43 | 1014.1 |
| 20260508000404 | 12 | 324 | 0.0 | 1.6 | 0.00 | 0.00 | 0.00 | 43 | 1014.0 |
| 20260507235900 | 13 | 326 | 0.0 | 1.6 | 0.00 | 0.00 | 0.00 | 44 | 1014.2 |
| 20260507235357 | 13 | 328 | 0.0 | 0.0 | 0.00 | 0.00 | 0.00 | 45 | 1013.9 |
| 20260507234854 | 13 | 327 | 0.0 | 0.0 | 0.00 | 0.00 | 0.00 | 42 | 1013.9 |
| 20260507234351 | 13 | 355 | 0.0 | 1.6 | 0.00 | 0.00 | 0.00 | 40 | 1014.0 |
| 20260507233847 | 13 | 331 | 0.0 | 0.0 | 0.00 | 0.00 | 0.00 | 42 | 1013.9 |
| 20260507233345 | 13 | 328 | 0.0 | 0.0 | 0.00 | 0.00 | 0.00 | 42 | 1013.8 |
| 20260507232843 | 14 | 317 | 0.0 | 1.6 | 0.00 | 0.00 | 0.00 | 40 | 1014.0 |
| 20260507232339 | 15 | 288 | 1.6 | 1.6 | 0.00 | 0.00 | 0.00 | 36 | 1013.8 |
| 20260507231837 | 16 | 278 | 3.2 | 3.2 | 0.00 | 0.00 | 0.00 | 37 | 1013.9 |
| 20260507231333 | 16 | 313 | 0.0 | 0.0 | 0.00 | 0.00 | 0.00 | 33 | 1013.7 |
| 20260507230829 | 16 | 322 | 1.6 | 1.6 | 0.00 | 0.00 | 0.00 | 36 | 1013.9 |
| 20260507230327 | 16 | 307 | 0.0 | 1.6 | 0.00 | 0.00 | 0.00 | 34 | 1013.8 |
| 20260507225827 | 16 | 311 | 1.6 | 1.6 | 0.00 | 0.00 | 0.00 | 35 | 1013.9 |
| 20260507225323 | 15 | 338 | 1.6 | 3.2 | 0.00 | 0.00 | 0.00 | 36 | 1013.9 |
| 20260507224819 | 16 | 345 | 3.2 | 4.8 | 0.00 | 0.00 | 0.00 | 38 | 1014.0 |
| 20260507224316 | 16 | 330 | 0.0 | 1.6 | 0.00 | 0.00 | 0.00 | 39 | 1013.9 |
| 20260507223812 | 15 | 309 | 4.8 | 6.4 | 0.00 | 0.00 | 0.00 | 36 | 1014.0 |
| 20260507223308 | 15 | 291 | 3.2 | 4.8 | 0.00 | 0.00 | 0.00 | 36 | 1014.0 |
| 20260507222806 | 15 | 257 | 6.4 | 11.3 | 0.00 | 0.00 | 0.00 | 34 | 1013.9 |
| 20260507222305 | 15 | 227 | 1.6 | 4.8 | 0.00 | 0.00 | 0.00 | 38 | 1013.8 |
| 20260507221759 | 15 | 309 | 1.6 | 3.2 | 0.00 | 0.00 | 0.00 | 37 | 1014.0 |
| 20260507221255 | 15 | 325 | 1.6 | 1.6 | 0.00 | 0.00 | 0.00 | 37 | 1014.0 |
| 20260507220751 | 15 | 237 | 3.2 | 4.8 | 0.00 | 0.00 | 0.00 | 39 | 1013.9 |